Flag for United Kingdom Weather past 2 weeks in Cheltenham, England, United Kingdom

Now
63 °F

Broken clouds.


Feels Like: 63 °F
Forecast: 41 / 58 °F
Wind: 6 mph from Southwest

Location: Staverton Private

Current Time: May 24, 2015 at 2:51:27 PM

Latest Report: May 24, 2015 at 2:20 PM


Visibility: N/A

Pressure: 30.09 "Hg

Humidity: 83%

Dew point: 57 °F

Location of CheltenhamLocation

Historic Weather in Cheltenham — Graph

°F

Cheltenham temperature yesterday

Maximum temperature yesterday: 66 °F (at 2:50 PM)
Minimum temperature yesterday: 55 °F (at 8:20 AM)
Average temperature yesterday: 63 °F

Past Weeks' High & Low Weather Summary

 TemperatureHumidityPressure
High66 °F (May 11, 4:50 PM)100% (May 18, 8:50 AM)30.33 "Hg (May 18, 8:50 AM)
Low41 °F (May 20, 6:50 AM)40% (May 11, 5:20 PM)29.56 "Hg (May 18, 10:50 AM)
Average57 °F68%30.07 "Hg
* Reported May 9 1:20 PM — May 24 1:50 PM, Cheltenham, Weather by CustomWeather, © 2015

Note: Actual official high and low records may vary slightly from our data, if they occured in-between our weather recording intervals... More about our weather records

Advertising

Cheltenham weather history for previous 24 hours

 ConditionsComfort  
Time TempWeatherWind HumidityBarometerVisibility
1:50 PM
Sun, May 24
64 °FBroken clouds.7 mph83%30.09 "HgN/A
1:20 PM63 °FBroken clouds.6 mph83%30.09 "HgN/A
12:50 PM61 °FBroken clouds.6 mph88%30.09 "HgN/A
12:20 PM61 °FScattered showers. Broken clouds.7 mph88%30.09 "Hg5 mi
11:50 AM59 °FScattered showers. Broken clouds.8 mph88%30.09 "Hg5 mi
11:20 AM57 °FRain. Broken clouds.6 mph94%30.12 "Hg2 mi
10:50 AM57 °FScattered showers. Broken clouds.7 mph94%30.12 "Hg6 mi
10:20 AM59 °FPartly sunny.6 mph82%30.12 "HgN/A
9:50 AM57 °FPartly sunny.6 mph88%30.12 "HgN/A
9:20 AM57 °FPartly sunny.7 mph88%30.12 "HgN/A
8:50 AM57 °FScattered clouds.7 mph82%30.12 "HgN/A
8:20 AM55 °FScattered clouds.7 mph88%30.12 "HgN/A
7:20 PM
Sat, May 23
64 °FPassing clouds.3 mph64%30.18 "HgN/A
6:50 PM64 °FPassing clouds.2 mph64%30.21 "HgN/A
6:20 PM66 °FPassing clouds.No wind60%30.21 "HgN/A
5:50 PM66 °FPassing clouds.No wind60%30.21 "HgN/A
5:20 PM66 °FPassing clouds.No wind60%30.21 "HgN/A
4:50 PM66 °FPassing clouds.2 mph64%30.21 "HgN/A
4:20 PM66 °FPassing clouds.3 mph56%30.24 "HgN/A
3:50 PM66 °FPassing clouds.No wind60%30.24 "HgN/A
3:20 PM66 °FPassing clouds.3 mph60%30.24 "HgN/A
2:50 PM66 °FPassing clouds.2 mph68%30.24 "HgN/A
2:20 PM64 °FPassing clouds.3 mph60%30.27 "HgN/A
Weather by CustomWeather, © 2015

See weather overviewHow to use our weather pages